Home > Weather > Mashhad > Past weeks

Flag for Iran Weather for the Past 2 Weeks in Mashhad, Iran

Now
68 °F

Partly sunny.


Feels Like: 68 °F
Forecast: 56 / 70 °F
Wind: 12 mph from Southeast

Location: Mashhad Airport

Current Time: May 2, 2016 at 5:34:33 PM

Latest Report: May 2, 2016 at 5:00 PM


Visibility: N/A

Pressure: 30.01 "Hg (26.77 "Hg at 981m altitude)

Humidity: 64%

Dew Point: 55 °F

Location of MashhadLocation

Historic Weather in Mashhad — Graph

°F

Mashhad Temperature Yesterday

Maximum temperature yesterday: 72 °F (at 1:00 PM)
Minimum temperature yesterday: 59 °F (at 6:30 AM)
Average temperature yesterday: 64 °F

High & Low Weather Summary for the Past Weeks

 TemperatureHumidityPressure
High90 °F (Apr 29, 3:00 PM)100% (Apr 18, 7:30 PM)30.24 "Hg (Apr 18, 7:30 PM)
Low46 °F (Apr 18, 1:00 AM)11% (Apr 28, 3:30 PM)29.83 "Hg (Apr 30, 3:30 PM)
Average64 °F57%30.04 "Hg
* Reported Apr 17 4:30 PM — May 2 4:30 PM, Mashhad, Weather by CustomWeather, © 2016

Note: Actual official high and low records may vary slightly from our data, if they occured in-between our weather recording intervals... More about our weather records

Advertising

Mashhad Weather History for the Previous 24 Hours

Scroll right to see more
 ConditionsComfort  
Time TempWeatherWind HumidityBarometerVisibility
4:30 PM
Mon, May 2
70 °FPartly sunny.18 mph60%30.01 "HgN/A
4:00 PM68 °FPartly sunny.14 mph69%29.98 "HgN/A
3:30 PM68 °FPartly sunny.14 mph69%30.01 "HgN/A
3:00 PM66 °FPartly sunny.14 mph68%30.01 "HgN/A
2:30 PM68 °FPartly sunny.14 mph64%30.01 "HgN/A
2:00 PM68 °FPartly sunny.14 mph64%30.04 "HgN/A
1:30 PM68 °FPartly sunny.12 mph69%30.04 "HgN/A
1:00 PM68 °FPartly sunny.12 mph69%30.04 "HgN/A
12:00 PM66 °FPartly sunny.14 mph73%30.04 "HgN/A
11:30 AM64 °FPartly sunny.12 mph78%30.07 "HgN/A
11:00 AM66 °FPartly sunny.12 mph73%30.07 "HgN/A
10:30 AM66 °FPartly sunny.14 mph78%30.07 "HgN/A
9:30 AM61 °FBroken clouds.9 mph88%30.07 "HgN/A
9:00 AM61 °FBroken clouds.7 mph88%30.07 "HgN/A
8:30 AM59 °FBroken clouds.9 mph100%30.07 "HgN/A
8:00 AM59 °FPartly sunny.7 mph100%30.04 "HgN/A
7:30 AM59 °FPartly sunny.5 mph88%30.04 "HgN/A
7:00 AM59 °FPassing clouds.7 mph94%30.04 "HgN/A
6:30 AM59 °FPassing clouds.9 mph94%30.04 "Hg5 mi
6:00 AM59 °FPassing clouds.5 mph94%30.01 "Hg5 mi
5:30 AM59 °FFog.9 mph94%30.01 "Hg3 mi
5:00 AM59 °FMostly cloudy.7 mph100%30.01 "Hg5 mi
4:30 AM59 °FFog.5 mph100%30.01 "Hg5 mi
4:00 AM59 °FDrizzle. Fog.5 mph94%30.01 "Hg3 mi
3:30 AM59 °FMostly cloudy.5 mph100%30.01 "Hg5 mi
3:00 AM59 °FDrizzle. Mostly cloudy.5 mph100%30.01 "Hg5 mi
2:30 AM59 °FDrizzle. Mostly cloudy.5 mph100%30.01 "Hg4 mi
2:00 AM59 °FMostly cloudy.5 mph100%30.01 "Hg5 mi
1:30 AM59 °FOvercast.9 mph100%30.01 "Hg4 mi
1:00 AM59 °FDrizzle. Fog.9 mph100%30.04 "Hg3 mi
12:30 AM59 °FLight rain. Fog.7 mph100%30.04 "Hg2 mi
12:00 AM59 °FLight rain. Fog.7 mph100%30.04 "Hg2 mi
11:30 PM
Sun, May 1
59 °FRain. Fog.7 mph100%30.04 "Hg2 mi
11:00 PM59 °FRain. Fog.9 mph100%30.04 "Hg2 mi
10:30 PM61 °FLight rain. Fog.9 mph100%30.04 "Hg2 mi
10:00 PM61 °FLight rain. Mostly cloudy.5 mph94%30.04 "Hg4 mi
9:30 PM61 °FLight rain. Mostly cloudy.9 mph94%30.04 "Hg5 mi
9:00 PM59 °FFog.7 mph100%30.04 "Hg2 mi
8:30 PM61 °FRain. More clouds than sun.7 mph94%30.04 "Hg4 mi
8:00 PM61 °FRain showers. Fog.7 mph94%30.01 "Hg3 mi
7:30 PM61 °FRain showers. Fog.9 mph94%30.01 "Hg2 mi
7:00 PM63 °FSprinkles. More clouds than sun.9 mph88%30.01 "Hg4 mi
6:30 PM64 °FSprinkles. More clouds than sun.12 mph78%29.98 "HgN/A
6:00 PM64 °FMore clouds than sun.7 mph83%29.98 "HgN/A
5:30 PM64 °FSprinkles. More clouds than sun.7 mph83%29.98 "HgN/A
5:00 PM64 °FSprinkles. More clouds than sun.5 mph83%29.95 "Hg5 mi
Weather by CustomWeather, © 2016

See weather overviewHow to use our weather pages